QPF
0.00 0.00 0.00 0.00 0.00 0.00 0.00 0.01 0.03 0.03 0.01 0.01 0.03 0.03 0.01 0.03 0.07 0.27 0.20 0.17 0.04 0.03 0.01 0.01 0.02 0.01 0.10 0.06 0.02 0.02 0.01 0.01 0.01 0.00 0.00 0.00 0.00 0.00 0.00 0.00 0.00 0.00 0.00 0.00
0.01 0.01 0.01 0.00 0.00 0.01 0.00 0.01 0.01 0.00 0.00 0.00 0.01 0.02 0.03 0.06 0.05 0.11 0.18 0.28 0.23 0.07 0.00 0.00 0.01 0.02 0.01 0.02 0.00 0.03 0.02 0.01 0.01 0.01 0.00 0.00 0.00 0.00 0.00 0.00 0.00 0.00 0.00 0.00
0.01 0.01 0.00 0.00 0.00 0.00 0.00 0.00 0.00 0.00 0.00 0.00 0.00 0.01 0.03 0.05 0.03 0.02 0.04 0.08 0.19 0.24 0.15 0.03 0.00 0.03 0.04 0.03 0.03 0.08 0.07 0.01 0.00 0.02 0.00 0.00 0.00 0.00 0.00 0.00 0.00 0.00 0.00 0.00
0.00 0.00 0.00 0.00 0.00 0.00 0.00 0.00 0.00 0.00 0.00 0.00 0.00 0.00 0.00 0.01 0.01 0.02 0.04 0.05 0.10 0.17 0.24 0.17 0.07 0.05 0.13 0.12 0.11 0.15 0.08 0.00 0.01 0.04 0.00 0.00 0.00 0.00 0.00 0.00 0.00 0.00 0.00 0.00
0.00 0.00 0.00 0.00 0.00 0.00 0.00 0.00 0.00 0.00 0.00 0.00 0.00 0.00 0.00 0.00 0.00 0.00 0.01 0.01 0.01 0.06 0.16 0.16 0.13 0.16 0.14 0.09 0.16 0.14 0.04 0.00 0.00 0.05 0.02 0.01 0.00 0.01 0.00 0.00 0.00 0.00 0.00 0.00
0.00 0.00 0.00 0.00 0.00 0.00 0.00 0.00 0.00 0.00 0.00 0.00 0.00 0.00 0.00 0.00 0.00 0.00 0.00 0.00 0.00 0.01 0.13 0.16 0.21 0.16 0.12 0.10 0.11 0.12 0.05 0.05 0.05 0.06 0.03 0.00 0.01 0.01 0.01 0.01 0.01 0.00 0.00 0.00
0.00 0.00 0.00 0.00 0.00 0.00 0.00 0.00 0.00 0.00 0.00 0.00 0.00 0.00 0.00 0.00 0.00 0.00 0.01 0.01 0.01 0.01 0.07 0.14 0.17 0.16 0.09 0.05 0.11 0.14 0.11 0.16 0.12 0.07 0.05 0.04 0.02 0.01 0.02 0.03 0.02 0.02 0.01 0.00
0.00 0.00 0.00 0.00 0.00 0.00 0.00 0.00 0.00 0.00 0.00 0.00 0.00 0.00 0.00 0.00 0.00 0.00 0.00 0.01 0.04 0.05 0.05 0.13 0.09 0.06 0.05 0.03 0.05 0.11 0.05 0.10 0.15 0.10 0.09 0.05 0.02 0.04 0.04 0.03 0.02 0.02 0.01 0.00
0.00 0.00 0.00 0.00 0.00 0.00 0.00 0.00 0.00 0.00 0.00 0.01 0.00 0.00 0.00 0.00 0.00 0.00 0.00 0.00 0.02 0.07 0.04 0.03 0.07 0.05 0.04 0.04 0.03 0.06 0.08 0.06 0.08 0.07 0.05 0.04 0.03 0.02 0.01 0.02 0.01 0.01 0.00 0.00
0.00 0.00 0.00 0.00 0.00 0.00 0.00 0.00 0.00 0.00 0.00 0.00 0.00 0.00 0.00 0.00 0.00 0.00 0.00 0.01 0.02 0.05 0.07 0.06 0.06 0.03 0.02 0.02 0.03 0.02 0.02 0.04 0.06 0.04 0.03 0.01 0.02 0.02 0.02 0.01 0.00 0.00 0.00 0.00
0.00 0.00 0.00 0.00 0.00 0.00 0.00 0.00 0.00 0.00 0.00 0.00 0.00 0.00 0.00 0.00 0.00 0.00 0.00 0.00 0.00 0.00 0.01 0.01 0.01 0.01 0.01 0.01 0.01 0.02 0.02 0.02 0.01 0.01 0.01 0.01 0.00 0.01 0.01 0.01 0.00 0.00 0.00 0.00
0.01 0.01 0.00 0.01 0.00 0.00 0.00 0.00 0.00 0.00 0.00 0.00 0.00 0.00 0.00 0.00 0.00 0.00 0.00 0.00 0.00 0.00 0.00 0.00 0.00 0.00 0.00 0.00 0.00 0.00 0.00 0.01 0.01 0.01 0.00 0.00 0.00 0.00 0.00 0.00 0.00 0.00 0.00 0.00
0.00 0.00 0.00 0.00 0.00 0.00 0.00 0.00 0.00 0.00 0.00 0.00 0.00 0.00 0.00 0.00 0.00 0.00 0.00 0.00 0.00 0.00 0.00 0.00 0.00 0.00 0.00 0.00 0.00 0.00 0.00 0.00 0.02 0.02 0.02 0.01 0.00 0.00 0.00 0.00 0.00 0.02 0.02 0.01
0.00 0.00 0.00 0.00 0.00 0.00 0.00 0.00 0.00 0.00 0.00 0.00 0.00 0.00 0.00 0.00 0.00 0.00 0.00 0.00 0.00 0.00 0.00 0.00 0.00 0.00 0.00 0.00 0.00 0.00 0.00 0.00 0.00 0.02 0.04 0.02 0.00 0.00 0.00 0.00 0.00 0.01 0.02 0.02
0.00 0.00 0.00 0.00 0.00 0.00 0.00 0.00 0.00 0.00 0.00 0.00 0.00 0.00 0.00 0.00 0.00 0.00 0.00 0.00 0.00 0.00 0.00 0.00 0.00 0.00 0.00 0.00 0.00 0.00 0.00 0.00 0.00 0.00 0.00 0.00 0.00 0.00 0.00 0.00 0.00 0.01 0.01 0.01
0.00 0.00 0.00 0.00 0.00 0.00 0.00 0.00 0.00 0.00 0.00 0.00 0.00 0.00 0.00 0.00 0.00 0.00 0.00 0.00 0.00 0.00 0.00 0.00 0.00 0.00 0.00 0.00 0.00 0.00 0.00 0.00 0.00 0.00 0.00 0.00 0.00 0.00 0.00 0.00 0.00 0.00 0.00 0.00
0.00 0.00 0.00 0.00 0.00 0.00 0.00 0.00 0.00 0.00 0.00 0.00 0.00 0.00 0.00 0.00 0.00 0.00 0.00 0.00 0.00 0.00 0.00 0.00 0.00 0.00 0.00 0.00 0.00 0.00 0.00 0.00 0.00 0.00 0.00 0.00 0.00 0.00 0.00 0.00 0.00 0.00 0.00 0.00
0.00 0.00 0.00 0.00 0.00 0.00 0.00 0.00 0.00 0.00 0.00 0.00 0.00 0.00 0.00 0.00 0.00 0.00 0.00 0.00 0.00 0.00 0.00 0.00 0.00 0.00 0.00 0.00 0.00 0.00 0.00 0.00 0.00 0.00 0.00 0.00 0.00 0.00 0.00 0.00 0.00 0.00 0.00 0.00
0.00 0.00 0.00 0.00 0.00 0.00 0.00 0.00 0.00 0.00 0.00 0.00 0.00 0.00 0.00 0.00 0.00 0.00 0.00 0.00 0.00 0.00 0.00 0.00 0.00 0.00 0.00 0.00 0.00 0.00 0.00 0.00 0.00 0.00 0.00 0.00 0.00 0.00 0.00 0.00 0.00 0.00 0.00 0.00
0.00 0.00 0.00 0.00 0.00 0.00 0.00 0.00 0.00 0.00 0.00 0.00 0.00 0.00 0.00 0.00 0.00 0.00 0.00 0.00 0.00 0.00 0.00 0.00 0.00 0.00 0.00 0.00 0.00 0.00 0.00 0.00 0.00 0.00 0.00 0.00 0.00 0.00 0.00 0.00 0.00 0.00 0.00 0.00
0.00 0.00 0.00 0.00 0.00 0.00 0.00 0.00 0.00 0.00 0.00 0.00 0.00 0.00 0.00 0.00 0.00 0.00 0.00 0.00 0.00 0.00 0.00 0.00 0.00 0.00 0.00 0.00 0.00 0.00 0.00 0.00 0.00 0.00 0.00 0.00 0.00 0.00 0.00 0.00 0.00 0.00 0.00 0.00
0.00 0.00 0.00 0.00 0.00 0.00 0.00 0.00 0.00 0.00 0.00 0.00 0.00 0.00 0.00 0.00 0.00 0.00 0.00 0.00 0.00 0.00 0.00 0.00 0.00 0.00 0.00 0.00 0.00 0.00 0.00 0.00 0.00 0.00 0.00 0.00 0.00 0.00 0.00 0.00 0.00 0.00 0.00 0.00
0.00 0.00 0.00 0.00 0.00 0.00 0.00 0.00 0.00 0.00 0.00 0.00 0.00 0.00 0.00 0.00 0.00 0.00 0.00 0.00 0.00 0.00 0.00 0.00 0.00 0.00 0.00 0.00 0.00 0.00 0.00 0.00 0.00 0.00 0.00 0.00 0.00 0.00 0.00 0.00 0.00 0.00 0.00 0.00
0.00 0.00 0.00 0.00 0.00 0.00 0.00 0.00 0.00 0.00 0.00 0.00 0.00 0.00 0.00 0.00 0.00 0.00 0.00 0.00 0.00 0.00 0.00 0.00 0.00 0.00 0.00 0.00 0.00 0.00 0.00 0.00 0.00 0.00 0.00 0.00 0.00 0.00 0.00 0.00 0.00 0.00 0.00 0.00
0.00 0.00 0.00 0.00 0.00 0.00 0.00 0.00 0.00 0.00 0.00 0.00 0.00 0.00 0.00 0.00 0.00 0.00 0.00 0.00 0.00 0.00 0.00 0.00 0.00 0.00 0.00 0.00 0.00 0.00 0.00 0.00 0.00 0.00 0.00 0.00 0.00 0.00 0.00 0.00 0.00 0.00 0.00 0.00
0.00 0.00 0.00 0.00 0.00 0.00 0.00 0.00 0.00 0.00 0.00 0.00 0.00 0.00 0.00 0.00 0.00 0.00 0.00 0.00 0.00 0.00 0.00 0.00 0.00 0.00 0.00 0.00 0.00 0.00 0.00 0.00 0.00 0.00 0.00 0.00 0.00 0.00 0.00 0.00 0.00 0.00 0.00 0.00
0.00 0.00 0.00 0.00 0.00 0.00 0.00 0.00 0.00 0.00 0.00 0.00 0.00 0.00 0.00 0.00 0.00 0.00 0.00 0.00 0.00 0.00 0.00 0.00 0.00 0.00 0.00 0.00 0.00 0.00 0.00 0.00 0.00 0.00 0.00 0.00 0.00 0.00 0.00 0.00 0.00 0.00 0.00 0.00
MSLP
1013.52 1012.44 1011.09 1010.87 1010.83 1010.20 1010.80 1011.20 1011.01 1011.25 1010.53 1009.53 1009.49 1009.01 1007.34 1005.74 1003.67 1003.04 1003.01 1002.84 1002.67 1003.31 1002.80 1005.50 1006.90 1007.65 1007.80 1008.79 1009.69 1010.40 1011.46 1012.69 1013.61 1014.78 1015.68 1016.32 1017.11 1017.82 1018.71 1019.51 1020.19 1020.83 1021.52 1022.19
1013.29 1012.85 1012.00 1013.12 1013.79 1013.93 1013.47 1013.42 1013.12 1013.12 1012.48 1011.68 1010.82 1009.80 1008.67 1008.25 1007.23 1006.75 1006.30 1005.24 1005.01 1004.61 1003.49 1004.43 1005.73 1006.88 1007.83 1008.48 1009.51 1010.18 1011.02 1012.04 1013.26 1014.42 1015.30 1016.01 1016.83 1017.60 1018.55 1019.38 1019.99 1020.61 1021.29 1021.89
1013.93 1013.04 1011.81 1014.05 1017.26 1017.25 1017.13 1016.77 1015.97 1015.02 1014.64 1013.03 1011.55 1010.94 1010.85 1010.41 1009.53 1008.77 1007.85 1007.26 1006.64 1006.44 1005.71 1005.37 1005.65 1006.10 1007.08 1007.90 1008.91 1009.93 1010.67 1012.03 1012.92 1014.03 1014.69 1015.55 1016.49 1017.38 1018.22 1019.05 1019.74 1020.41 1020.98 1021.62
1015.03 1014.67 1017.15 1019.94 1019.13 1018.82 1018.41 1018.34 1017.60 1017.01 1014.95 1013.45 1012.57 1012.40 1012.26 1012.31 1011.50 1010.77 1009.72 1008.82 1007.94 1007.61 1007.00 1006.45 1006.20 1006.68 1007.31 1007.73 1008.65 1009.57 1010.54 1011.66 1012.59 1013.42 1014.20 1015.13 1016.03 1016.93 1017.83 1018.58 1019.23 1019.92 1020.65 1021.34
1016.61 1017.42 1019.52 1019.81 1020.27 1019.84 1018.97 1018.50 1018.40 1016.94 1015.84 1014.98 1013.98 1013.08 1012.99 1013.44 1012.73 1012.52 1011.52 1010.31 1009.28 1008.10 1007.12 1006.81 1006.25 1006.76 1007.11 1007.68 1008.41 1009.52 1010.17 1010.89 1011.82 1012.67 1013.67 1014.65 1015.64 1016.55 1017.34 1018.09 1018.88 1019.53 1020.23 1020.91
1017.82 1020.03 1022.76 1023.18 1020.86 1019.20 1018.81 1019.15 1019.87 1019.05 1017.68 1016.88 1016.22 1015.58 1015.91 1015.44 1014.93 1013.55 1012.77 1011.02 1010.00 1007.75 1006.84 1006.92 1006.65 1007.02 1007.76 1008.22 1008.58 1009.19 1009.62 1010.31 1011.31 1012.38 1013.30 1014.32 1015.22 1016.28 1017.19 1018.03 1018.57 1019.20 1019.90 1020.37
1020.66 1021.74 1023.96 1023.41 1021.57 1019.45 1020.93 1023.99 1022.43 1021.13 1020.08 1019.07 1018.35 1018.66 1018.06 1016.77 1015.36 1014.86 1014.02 1012.60 1010.77 1009.45 1008.53 1007.53 1007.40 1007.63 1008.01 1008.42 1008.74 1009.37 1009.92 1010.67 1011.16 1012.07 1012.90 1013.99 1015.19 1016.01 1016.94 1017.80 1018.51 1019.07 1019.62 1020.16
1022.56 1023.45 1025.36 1025.17 1023.40 1023.06 1025.37 1024.62 1023.54 1022.40 1021.54 1020.79 1020.13 1019.58 1018.71 1018.07 1017.19 1016.25 1015.05 1013.59 1012.65 1011.54 1010.83 1009.41 1008.58 1007.86 1008.05 1009.03 1009.12 1009.57 1009.82 1010.69 1011.39 1012.04 1012.97 1014.06 1014.89 1015.83 1016.71 1017.56 1018.12 1018.88 1019.49 1020.14
1025.12 1026.78 1027.07 1026.54 1026.02 1025.77 1025.17 1024.46 1023.73 1023.12 1022.41 1021.74 1020.90 1020.15 1019.50 1018.42 1017.65 1017.19 1016.47 1015.52 1014.95 1013.91 1013.05 1011.89 1011.38 1010.83 1010.51 1010.51 1009.49 1009.71 1010.01 1010.61 1011.30 1012.08 1012.82 1013.71 1014.68 1015.49 1016.17 1016.88 1017.62 1018.32 1018.98 1019.72
1026.17 1027.53 1027.18 1026.80 1026.43 1026.10 1025.43 1024.93 1024.24 1023.27 1022.49 1021.66 1021.19 1021.07 1020.34 1019.65 1018.72 1017.98 1017.46 1016.65 1016.08 1014.94 1014.22 1014.17 1013.92 1013.36 1012.57 1011.38 1010.43 1009.02 1010.10 1010.66 1011.35 1011.95 1012.63 1013.48 1014.23 1015.03 1015.74 1016.51 1017.13 1017.82 1018.39 1019.06
1026.94 1027.16 1027.01 1026.89 1026.59 1026.17 1025.86 1025.29 1024.33 1023.46 1022.72 1022.13 1021.60 1021.08 1020.93 1020.11 1019.94 1019.63 1019.03 1018.18 1017.38 1016.74 1016.31 1015.76 1015.29 1014.06 1013.40 1012.59 1011.69 1010.96 1010.64 1010.78 1011.16 1011.82 1012.38 1013.24 1013.85 1014.54 1015.09 1015.83 1016.39 1017.08 1017.76 1018.43
1027.46 1027.40 1027.26 1026.91 1026.28 1025.77 1025.26 1024.61 1024.17 1023.48 1022.88 1022.57 1022.35 1022.03 1021.61 1021.39 1021.23 1020.39 1020.15 1019.78 1019.11 1018.73 1018.27 1017.86 1017.20 1016.44 1015.48 1014.57 1013.70 1012.63 1011.82 1011.82 1012.05 1012.20 1012.58 1012.58 1013.62 1014.65 1014.97 1015.26 1015.89 1016.53 1017.11 1017.56
1027.17 1026.91 1026.66 1026.45 1026.12 1025.63 1025.31 1024.96 1024.61 1024.24 1023.75 1023.14 1022.81 1022.57 1022.34 1022.19 1022.28 1022.20 1021.36 1020.99 1020.44 1020.33 1019.86 1019.33 1018.42 1017.65 1017.14 1016.29 1015.30 1014.04 1013.63 1013.47 1012.83 1012.79 1012.98 1013.00 1013.59 1014.04 1014.98 1015.38 1015.62 1015.81 1016.51 1017.07
1026.53 1026.47 1026.64 1026.32 1026.16 1025.80 1025.57 1025.42 1025.30 1025.14 1024.74 1024.32 1023.93 1023.47 1023.42 1023.36 1022.87 1022.54 1022.48 1022.40 1022.21 1021.92 1021.42 1020.76 1019.91 1019.55 1018.95 1018.06 1017.00 1016.36 1015.78 1015.20 1013.95 1013.43 1013.38 1013.53 1013.87 1014.20 1014.65 1015.40 1015.78 1016.27 1016.33 1016.58
1026.40 1026.25 1026.31 1026.32 1026.18 1026.02 1025.80 1025.66 1025.59 1025.47 1025.40 1025.23 1024.98 1024.73 1024.31 1023.97 1023.76 1023.69 1023.51 1023.31 1023.02 1022.53 1022.33 1022.09 1021.82 1021.44 1020.67 1019.72 1018.73 1017.90 1017.08 1016.50 1015.42 1014.63 1014.19 1014.14 1014.34 1014.25 1014.54 1014.97 1015.37 1015.73 1016.18 1016.58
1026.44 1026.45 1026.39 1026.35 1026.32 1026.18 1026.05 1025.96 1025.98 1025.88 1025.70 1025.67 1025.61 1025.35 1025.29 1025.21 1024.85 1024.46 1024.50 1024.39 1024.16 1023.96 1023.54 1023.04 1022.57 1022.17 1021.65 1020.94 1019.96 1019.04 1018.34 1017.87 1016.91 1016.17 1015.62 1015.23 1015.01 1014.94 1014.74 1014.81 1015.11 1015.31 1015.70 1015.87
1026.51 1026.48 1026.47 1026.48 1026.41 1026.33 1026.23 1026.14 1026.11 1026.20 1026.09 1026.14 1026.22 1026.16 1025.96 1025.70 1025.30 1025.00 1025.04 1025.03 1025.12 1025.21 1025.23 1024.84 1024.56 1023.75 1023.12 1022.10 1021.19 1020.43 1019.83 1019.27 1018.74 1017.99 1017.46 1017.05 1016.71 1016.34 1015.99 1015.54 1015.02 1015.15 1015.32 1015.06
1026.35 1026.39 1026.41 1026.46 1026.45 1026.49 1026.39 1026.29 1026.31 1026.37 1026.39 1026.41 1026.53 1026.63 1026.52 1026.32 1026.07 1025.61 1025.68 1025.80 1025.79 1025.71 1025.31 1025.07 1025.13 1024.52 1023.86 1023.19 1022.41 1021.56 1020.84 1020.35 1019.81 1019.38 1018.92 1018.40 1017.98 1017.57 1017.02 1016.35 1015.92 1015.87 1015.46 1015.14
1026.35 1026.39 1026.42 1026.42 1026.40 1026.47 1026.57 1026.62 1026.68 1026.58 1026.72 1026.86 1027.13 1027.30 1027.04 1026.81 1026.56 1026.13 1026.21 1026.21 1026.17 1025.86 1025.71 1025.52 1025.32 1025.04 1024.58 1024.02 1023.39 1022.54 1021.81 1021.56 1021.11 1020.66 1020.18 1019.74 1019.27 1018.80 1018.29 1017.67 1017.38 1016.84 1016.56 1016.23
1026.28 1026.27 1026.29 1026.31 1026.28 1026.41 1026.57 1026.59 1026.66 1026.84 1027.21 1027.30 1027.59 1027.78 1027.64 1027.22 1026.80 1026.40 1026.33 1026.69 1027.01 1026.85 1026.45 1026.18 1025.73 1025.33 1024.92 1024.22 1023.59 1023.05 1022.65 1022.13 1021.93 1021.73 1021.14 1020.67 1020.13 1019.66 1019.27 1018.90 1018.60 1018.06 1017.58 1017.25
1026.24 1026.29 1026.38 1026.37 1026.32 1026.35 1026.48 1026.44 1026.81 1027.27 1027.57 1027.60 1027.85 1028.08 1028.10 1027.66 1027.22 1026.94 1026.89 1026.98 1027.21 1026.79 1026.55 1026.48 1026.21 1026.09 1025.66 1025.14 1024.43 1024.06 1023.58 1023.09 1022.61 1022.18 1021.79 1021.61 1021.23 1020.87 1020.54 1020.02 1019.56 1019.28 1018.98 1018.53
1026.11 1026.22 1026.33 1026.30 1026.32 1026.39 1026.22 1026.23 1026.79 1027.38 1027.76 1027.96 1028.16 1028.28 1028.22 1027.75 1027.50 1027.38 1027.41 1027.61 1027.42 1027.10 1027.01 1027.00 1026.91 1026.49 1025.85 1025.22 1024.66 1024.30 1023.89 1023.41 1023.06 1022.51 1022.04 1022.04 1021.81 1021.62 1021.36 1021.05 1020.77 1020.28 1019.77 1019.35
1025.84 1025.92 1026.05 1026.19 1026.24 1026.23 1026.00 1026.42 1026.86 1027.18 1027.31 1027.41 1027.70 1027.93 1028.13 1028.23 1028.12 1028.09 1028.01 1028.09 1027.86 1027.66 1027.73 1027.69 1027.32 1026.78 1026.27 1025.72 1025.21 1024.81 1024.40 1023.91 1023.45 1023.06 1022.71 1022.50 1022.40 1022.14 1021.97 1021.71 1021.32 1020.97 1020.49 1020.32
1025.63 1025.71 1025.82 1025.83 1025.91 1026.03 1026.18 1026.90 1027.13 1027.54 1027.69 1027.64 1027.58 1027.67 1027.90 1028.02 1028.19 1028.10 1028.07 1028.15 1028.23 1028.13 1028.09 1027.95 1027.40 1026.85 1026.38 1026.05 1025.69 1025.29 1024.82 1024.46 1024.09 1023.69 1023.38 1023.16 1022.85 1022.64 1022.32 1022.04 1021.84 1021.58 1021.31 1020.93
1025.37 1025.45 1025.54 1025.81 1026.12 1026.41 1026.56 1026.76 1027.24 1027.69 1028.12 1028.21 1028.21 1028.14 1028.20 1028.17 1028.54 1028.44 1028.45 1028.55 1028.60 1028.46 1028.36 1028.17 1027.69 1027.20 1026.79 1026.41 1026.04 1025.66 1025.41 1025.13 1024.86 1024.42 1024.01 1023.68 1023.44 1023.24 1022.93 1022.62 1022.18 1021.94 1021.62 1021.33
1025.16 1025.29 1025.41 1025.64 1026.14 1026.59 1027.03 1027.34 1027.91 1028.08 1028.27 1028.46 1028.66 1028.68 1028.71 1028.59 1028.78 1028.83 1028.94 1028.88 1028.85 1028.76 1028.51 1028.20 1027.86 1027.54 1027.11 1026.78 1026.43 1026.06 1025.67 1025.42 1025.12 1024.72 1024.42 1024.09 1023.88 1023.80 1023.37 1023.04 1022.70 1022.21 1022.08 1021.93
1024.75 1024.96 1025.33 1025.80 1025.99 1026.34 1026.82 1027.36 1027.90 1028.21 1028.23 1028.24 1028.63 1028.79 1028.83 1028.98 1029.00 1029.19 1029.30 1029.25 1029.26 1029.06 1028.81 1028.50 1028.11 1027.78 1027.57 1027.33 1027.01 1026.64 1026.26 1025.91 1025.69 1025.40 1025.05 1024.77 1024.48 1024.12 1023.78 1023.43 1023.31 1023.05 1022.71 1022.75
Thickness
5428 5436 5457 5463 5471 5486 5490 5498 5515 5506 5509 5525 5530 5539 5562 5581 5607 5622 5631 5639 5640 5640 5651 5636 5630 5633 5642 5642 5643 5645 5642 5637 5636 5632 5628 5630 5628 5627 5623 5619 5616 5613 5608 5604
5449 5453 5465 5439 5444 5457 5469 5469 5485 5484 5493 5509 5523 5537 5549 5560 5575 5584 5591 5607 5614 5626 5647 5645 5639 5637 5638 5639 5639 5642 5641 5636 5632 5629 5626 5627 5626 5623 5619 5614 5611 5608 5605 5602
5457 5461 5485 5454 5413 5429 5435 5443 5454 5472 5471 5496 5515 5527 5532 5538 5554 5568 5580 5588 5597 5603 5621 5632 5639 5643 5641 5643 5639 5635 5635 5628 5627 5624 5626 5625 5622 5618 5615 5611 5607 5604 5602 5599
5448 5451 5414 5398 5414 5419 5430 5431 5438 5449 5468 5492 5517 5517 5518 5520 5534 5547 5563 5575 5586 5592 5603 5614 5625 5629 5633 5639 5637 5634 5630 5626 5621 5622 5623 5621 5618 5616 5612 5609 5606 5603 5598 5595
5432 5429 5413 5412 5406 5415 5426 5438 5432 5451 5467 5480 5498 5513 5513 5509 5520 5529 5544 5561 5570 5589 5600 5608 5620 5624 5631 5634 5632 5629 5627 5627 5624 5623 5621 5619 5615 5613 5609 5606 5603 5600 5596 5593
5430 5398 5378 5377 5402 5427 5437 5446 5427 5438 5454 5463 5475 5484 5484 5491 5497 5515 5528 5550 5562 5587 5601 5604 5617 5620 5617 5620 5624 5624 5626 5626 5621 5620 5619 5616 5613 5607 5602 5599 5598 5596 5593 5591
5409 5401 5379 5383 5405 5443 5431 5403 5410 5425 5435 5447 5459 5458 5465 5483 5496 5505 5517 5532 5551 5577 5585 5598 5605 5611 5613 5613 5617 5619 5619 5615 5618 5617 5616 5611 5605 5601 5598 5595 5592 5591 5588 5586
5394 5382 5370 5375 5397 5402 5384 5393 5405 5417 5426 5435 5445 5454 5464 5473 5484 5496 5508 5524 5535 5551 5562 5578 5590 5604 5605 5605 5609 5609 5611 5610 5610 5611 5609 5604 5600 5596 5593 5588 5587 5583 5581 5578
5372 5360 5362 5367 5373 5373 5385 5395 5404 5413 5420 5429 5440 5450 5459 5471 5482 5489 5498 5509 5516 5527 5539 5552 5562 5571 5579 5586 5600 5604 5606 5605 5604 5603 5602 5599 5594 5589 5589 5586 5584 5581 5579 5575
5372 5357 5363 5369 5376 5377 5384 5393 5402 5414 5426 5437 5442 5444 5451 5462 5473 5483 5489 5501 5507 5517 5526 5530 5539 5549 5559 5571 5586 5599 5598 5599 5597 5598 5597 5592 5589 5586 5586 5582 5581 5578 5575 5571
5367 5368 5372 5372 5375 5382 5384 5392 5404 5413 5421 5430 5439 5447 5450 5461 5464 5466 5474 5486 5495 5502 5507 5516 5523 5533 5542 5556 5569 5582 5590 5593 5594 5593 5594 5589 5584 5583 5582 5579 5576 5573 5569 5566
5362 5368 5367 5370 5380 5386 5391 5397 5404 5413 5418 5422 5426 5432 5441 5444 5449 5459 5464 5467 5477 5483 5489 5494 5502 5508 5520 5534 5548 5550 5571 5578 5579 5582 5584 5581 5577 5571 5569 5573 5569 5566 5563 5562
5370 5377 5379 5382 5384 5388 5391 5396 5400 5404 5410 5417 5422 5426 5430 5433 5433 5438 5448 5452 5461 5465 5470 5477 5485 5495 5502 5514 5523 5538 5547 5551 5562 5566 5568 5569 5568 5570 5563 5560 5562 5561 5556 5553
5382 5382 5377 5381 5381 5387 5388 5390 5392 5394 5399 5404 5410 5415 5418 5420 5426 5432 5433 5436 5440 5445 5453 5460 5468 5472 5479 5491 5505 5512 5520 5525 5546 5556 5558 5559 5557 5558 5558 5552 5552 5549 5551 5548
5378 5380 5378 5380 5383 5384 5387 5387 5387 5390 5391 5393 5397 5400 5405 5410 5415 5418 5421 5425 5429 5435 5440 5445 5448 5453 5463 5472 5483 5495 5504 5511 5523 5535 5541 5545 5547 5549 5548 5547 5546 5543 5541 5538
5374 5374 5374 5375 5376 5378 5379 5381 5382 5384 5388 5388 5388 5392 5393 5393 5399 5405 5407 5411 5414 5417 5424 5430 5437 5443 5449 5457 5468 5476 5485 5490 5500 5509 5517 5525 5529 5533 5537 5537 5534 5536 5532 5534
5366 5367 5367 5367 5369 5371 5374 5374 5375 5375 5378 5378 5378 5379 5383 5385 5390 5393 5395 5398 5400 5400 5401 5407 5412 5422 5430 5441 5450 5458 5464 5469 5475 5484 5490 5494 5500 5508 5515 5521 5527 5527 5524 5528
5368 5366 5363 5363 5363 5362 5364 5366 5366 5368 5368 5370 5370 5369 5371 5374 5376 5382 5382 5382 5384 5388 5393 5397 5398 5406 5414 5422 5430 5439 5446 5452 5457 5462 5469 5474 5479 5484 5492 5501 5506 5505 5512 5516
5371 5367 5365 5364 5362 5358 5355 5354 5354 5356 5355 5356 5355 5354 5358 5361 5365 5372 5371 5370 5371 5377 5379 5384 5386 5390 5396 5403 5410 5419 5427 5431 5436 5441 5446 5451 5456 5462 5468 5476 5480 5486 5489 5495
5372 5370 5367 5365 5362 5359 5355 5353 5351 5348 5342 5340 5338 5338 5341 5346 5350 5356 5362 5358 5357 5360 5363 5368 5373 5377 5382 5390 5396 5404 5409 5415 5419 5422 5428 5433 5438 5443 5448 5453 5457 5462 5468 5473
5371 5367 5363 5361 5359 5356 5351 5348 5342 5341 5335 5332 5329 5325 5322 5327 5333 5340 5342 5342 5343 5348 5351 5354 5357 5359 5363 5369 5377 5381 5386 5393 5399 5405 5410 5413 5418 5422 5426 5432 5437 5441 5444 5449
5373 5367 5363 5360 5357 5355 5352 5351 5340 5332 5329 5324 5317 5314 5313 5320 5320 5320 5321 5321 5325 5330 5333 5336 5337 5342 5349 5355 5362 5366 5371 5377 5381 5388 5395 5396 5400 5403 5407 5412 5415 5421 5426 5431
5374 5371 5367 5361 5356 5354 5352 5343 5332 5328 5324 5323 5322 5319 5316 5311 5309 5305 5302 5301 5305 5308 5310 5314 5318 5324 5329 5335 5341 5345 5351 5357 5363 5369 5373 5377 5380 5384 5387 5391 5396 5400 5405 5408
5376 5372 5367 5363 5358 5354 5350 5335 5330 5323 5317 5320 5321 5317 5313 5309 5305 5304 5302 5299 5295 5293 5292 5295 5301 5306 5311 5315 5319 5324 5330 5335 5340 5346 5352 5356 5360 5364 5369 5372 5376 5379 5382 5387
5376 5372 5368 5363 5355 5348 5343 5338 5329 5322 5314 5309 5307 5306 5304 5303 5298 5297 5293 5290 5287 5286 5284 5282 5283 5286 5290 5294 5299 5303 5307 5311 5315 5322 5328 5333 5338 5342 5346 5351 5357 5360 5364 5367
5376 5372 5368 5362 5353 5344 5337 5330 5320 5315 5310 5305 5301 5298 5295 5294 5289 5286 5281 5278 5276 5273 5273 5273 5274 5274 5276 5277 5279 5283 5288 5292 5296 5302 5306 5312 5316 5319 5325 5329 5333 5339 5341 5343
5377 5369 5366 5358 5354 5347 5338 5329 5319 5313 5310 5306 5301 5296 5292 5286 5281 5275 5268 5265 5261 5259 5257 5257 5257 5257 5258 5260 5263 5265 5267 5271 5274 5279 5284 5289 5294 5299 5304 5309 5312 5316 5320 5322